When you browse on this site, cookies collect data to enhance your experience and personalize the content and advertising you see.
Visit our Privacy Policy to learn more. By continuing to use the site, you agree to this use of cookies and data.
  • In Germany
  • List of Countries
  • For 7 days
  • Water Temperature
  • Weather Map
  • Weather Widgets
  • user-avatar
    Login

    Hourly Weather Brisbane

    Today, 18 October, Friday

    Time Temperature Precipitation Wind Pressure Humidity
    00:00 +21°C° 0 mm 2 mps 759 mmHg 84%
    01:00 +21°C° 0 mm 2 mps 759 mmHg 84%
    02:00 +21°C° 0 mm 2 mps 759 mmHg 85%
    03:00 +21°C° 0 mm 1 mps 759 mmHg 86%
    04:00 +20°C° 0 mm 2 mps 758 mmHg 82%
    05:00 +21°C° 0 mm 2 mps 759 mmHg 78%
    06:00 +21°C° 0 mm 3 mps 760 mmHg 74%
    07:00 +22°C° 0 mm 4 mps 760 mmHg 70%
    08:00 +23°C° 0 mm 4 mps 761 mmHg 63%
    09:00 +26°C° 0 mm 4 mps 761 mmHg 56%
    10:00 +28°C° 0 mm 4 mps 761 mmHg 45%
    11:00 +28°C° 0 mm 4 mps 761 mmHg 45%
    12:00 +28°C° 0 mm 4 mps 760 mmHg 46%
    13:00 +28°C° 0 mm 4 mps 760 mmHg 46%
    14:00 +28°C° 0 mm 4 mps 759 mmHg 49%
    15:00 +27°C° 0 mm 5 mps 759 mmHg 52%
    16:00 +26°C° 0 mm 5 mps 759 mmHg 55%
    17:00 +23°C° 0 mm 4 mps 759 mmHg 61%
    18:00 +22°C° 0 mm 3 mps 760 mmHg 68%
    19:00 +20°C° 0 mm 3 mps 761 mmHg 75%
    20:00 +20°C° 0 mm 2 mps 761 mmHg 77%
    21:00 +20°C° 0 mm 2 mps 762 mmHg 79%
    22:00 +20°C° 0 mm 1 mps 762 mmHg 80%
    23:00 +20°C° 0 mm 1 mps 762 mmHg 81%

    Tomorrow, 19 October, Saturday

    Time Temperature Precipitation Wind Pressure Humidity
    00:00 +20°C° 0 mm 1 mps 761 mmHg 81%
    01:00 +20°C° 0 mm 1 mps 761 mmHg 82%
    02:00 +20°C° 0 mm 1 mps 761 mmHg 81%
    03:00 +21°C° 0 mm 1 mps 761 mmHg 80%
    04:00 +21°C° 0 mm 1 mps 761 mmHg 79%
    05:00 +21°C° 0 mm 1 mps 761 mmHg 77%
    06:00 +21°C° 0 mm 1 mps 761 mmHg 75%
    07:00 +22°C° 0 mm 1 mps 762 mmHg 73%
    08:00 +23°C° 0 mm 1 mps 762 mmHg 68%
    09:00 +24°C° 0 mm 1 mps 762 mmHg 64%
    10:00 +24°C° 0 mm 0 mps 761 mmHg 60%
    11:00 +27°C° 0.2 mm 1 mps 760 mmHg 56%
    12:00 +29°C° 0.2 mm 2 mps 760 mmHg 52%
    13:00 +30°C° 0.2 mm 2 mps 759 mmHg 48%
    14:00 +30°C° 0.1 mm 3 mps 758 mmHg 51%
    15:00 +29°C° 0.1 mm 3 mps 758 mmHg 53%
    16:00 +29°C° 0.1 mm 3 mps 757 mmHg 56%
    17:00 +27°C° 0.2 mm 3 mps 758 mmHg 66%
    18:00 +25°C° 0.2 mm 3 mps 758 mmHg 75%
    19:00 +23°C° 0.2 mm 2 mps 759 mmHg 85%
    20:00 +21°C° 0 mm 2 mps 759 mmHg 84%
    21:00 +21°C° 0 mm 2 mps 760 mmHg 84%
    22:00 +21°C° 0 mm 1 mps 760 mmHg 84%
    23:00 +21°C° 0 mm 1 mps 760 mmHg 80%

    Day after tomorrow, 20 October, Sunday

    Time Temperature Precipitation Wind Pressure Humidity
    00:00 +20°C° 0 mm 1 mps 759 mmHg 75%
    01:00 +19°C° 0 mm 1 mps 759 mmHg 71%
    02:00 +19°C° 0 mm 1 mps 759 mmHg 66%
    03:00 +18°C° 0 mm 1 mps 759 mmHg 61%
    04:00 +17°C° 0 mm 2 mps 759 mmHg 55%
    05:00 +18°C° 0 mm 2 mps 760 mmHg 50%
    06:00 +19°C° 0 mm 2 mps 760 mmHg 44%
    07:00 +20°C° 0 mm 2 mps 761 mmHg 38%
    08:00 +24°C° 0 mm 2 mps 761 mmHg 34%
    09:00 +26°C° 0 mm 2 mps 761 mmHg 29%
    10:00 +29°C° 0 mm 2 mps 761 mmHg 24%
    11:00 +30°C° 0 mm 3 mps 761 mmHg 25%
    12:00 +31°C° 0 mm 3 mps 760 mmHg 25%
    13:00 +32°C° 0 mm 4 mps 760 mmHg 26%
    14:00 +29°C° 0 mm 5 mps 760 mmHg 35%
    15:00 +27°C° 0 mm 6 mps 760 mmHg 45%
    16:00 +24°C° 0 mm 7 mps 760 mmHg 55%
    17:00 +23°C° 0 mm 6 mps 761 mmHg 60%
    18:00 +21°C° 0 mm 5 mps 761 mmHg 66%
    19:00 +20°C° 0 mm 5 mps 762 mmHg 71%
    20:00 +19°C° 0 mm 4 mps 763 mmHg 71%
    21:00 +19°C° 0 mm 4 mps 764 mmHg 70%
    22:00 +18°C° 0 mm 4 mps 764 mmHg 70%
    23:00 +18°C° 0 mm 4 mps 764 mmHg 73%

    21 October, Monday

    Time Temperature Precipitation Wind Pressure Humidity
    00:00 +18°C° 0 mm 4 mps 764 mmHg 75%
    01:00 +17°C° 0 mm 4 mps 764 mmHg 78%
    02:00 +17°C° 0 mm 4 mps 764 mmHg 78%
    03:00 +17°C° 0 mm 3 mps 764 mmHg 79%
    04:00 +17°C° 0 mm 3 mps 764 mmHg 79%
    05:00 +18°C° 0 mm 4 mps 765 mmHg 73%
    06:00 +19°C° 0 mm 4 mps 765 mmHg 67%
    07:00 +20°C° 0 mm 4 mps 766 mmHg 62%
    08:00 +21°C° 0 mm 5 mps 766 mmHg 56%
    09:00 +22°C° 0 mm 5 mps 766 mmHg 50%
    10:00 +25°C° 0 mm 5 mps 766 mmHg 44%
    11:00 +24°C° 0 mm 6 mps 766 mmHg 42%
    12:00 +24°C° 0 mm 6 mps 765 mmHg 41%
    13:00 +26°C° 0 mm 6 mps 765 mmHg 39%
    14:00 +24°C° 0 mm 6 mps 765 mmHg 41%
    15:00 +23°C° 0 mm 6 mps 765 mmHg 43%
    16:00 +23°C° 0 mm 5 mps 765 mmHg 45%
    17:00 +22°C° 0 mm 5 mps 765 mmHg 51%
    18:00 +20°C° 0 mm 5 mps 766 mmHg 57%
    19:00 +19°C° 0 mm 5 mps 766 mmHg 62%
    20:00 +18°C° 0 mm 4 mps 767 mmHg 65%
    21:00 +18°C° 0 mm 4 mps 767 mmHg 68%
    22:00 +17°C° 0 mm 3 mps 767 mmHg 71%
    23:00 +17°C° 0 mm 3 mps 767 mmHg 73%

    22 October, Tuesday

    Time Temperature Precipitation Wind Pressure Humidity
    00:00 +17°C° 0 mm 3 mps 766 mmHg 75%
    01:00 +16°C° 0 mm 3 mps 766 mmHg 78%
    02:00 +16°C° 0 mm 2 mps 766 mmHg 79%
    03:00 +15°C° 0 mm 2 mps 766 mmHg 80%
    04:00 +15°C° 0 mm 2 mps 766 mmHg 81%
    05:00 +16°C° 0 mm 2 mps 766 mmHg 76%
    06:00 +17°C° 0 mm 2 mps 766 mmHg 71%
    07:00 +18°C° 0 mm 2 mps 766 mmHg 66%
    08:00 +20°C° 0.1 mm 2 mps 766 mmHg 60%
    09:00 +22°C° 0.1 mm 3 mps 766 mmHg 54%
    10:00 +24°C° 0.1 mm 3 mps 766 mmHg 48%
    11:00 +25°C° 0 mm 3 mps 766 mmHg 49%
    12:00 +25°C° 0 mm 4 mps 766 mmHg 49%
    13:00 +25°C° 0 mm 4 mps 765 mmHg 49%
    14:00 +23°C° 0 mm 4 mps 765 mmHg 51%
    15:00 +23°C° 0 mm 4 mps 765 mmHg 53%
    16:00 +22°C° 0 mm 4 mps 764 mmHg 54%
    17:00 +21°C° 0 mm 4 mps 765 mmHg 60%
    18:00 +20°C° 0 mm 4 mps 765 mmHg 65%
    19:00 +19°C° 0 mm 3 mps 766 mmHg 70%
    20:00 +19°C° 0 mm 3 mps 766 mmHg 73%
    21:00 +18°C° 0 mm 3 mps 766 mmHg 75%
    22:00 +18°C° 0 mm 3 mps 767 mmHg 77%
    23:00 +17°C° 0 mm 2 mps 766 mmHg 79%

    23 October, Wednesday

    Time Temperature Precipitation Wind Pressure Humidity
    00:00 +17°C° 0 mm 2 mps 766 mmHg 81%
    01:00 +16°C° 0 mm 2 mps 766 mmHg 83%
    02:00 +16°C° 0.1 mm 2 mps 765 mmHg 82%
    03:00 +16°C° 0.1 mm 2 mps 765 mmHg 82%
    04:00 +16°C° 0.1 mm 2 mps 765 mmHg 81%
    05:00 +17°C° 0.1 mm 2 mps 766 mmHg 79%
    06:00 +18°C° 0.1 mm 2 mps 766 mmHg 76%
    07:00 +18°C° 0.1 mm 2 mps 766 mmHg 73%
    08:00 +20°C° 0.1 mm 2 mps 766 mmHg 66%
    09:00 +22°C° 0.1 mm 3 mps 766 mmHg 59%
    10:00 +24°C° 0.1 mm 3 mps 766 mmHg 52%
    11:00 +25°C° 0 mm 3 mps 765 mmHg 49%
    12:00 +26°C° 0 mm 4 mps 765 mmHg 46%
    13:00 +27°C° 0 mm 4 mps 764 mmHg 44%
    14:00 +26°C° 0 mm 4 mps 764 mmHg 47%
    15:00 +25°C° 0 mm 5 mps 764 mmHg 50%
    16:00 +25°C° 0 mm 5 mps 764 mmHg 53%
    17:00 +22°C° 0 mm 4 mps 764 mmHg 61%
    18:00 +21°C° 0 mm 4 mps 765 mmHg 69%
    19:00 +19°C° 0 mm 3 mps 765 mmHg 76%
    20:00 +19°C° 0 mm 3 mps 765 mmHg 78%
    21:00 +18°C° 0 mm 2 mps 766 mmHg 79%
    22:00 +18°C° 0 mm 2 mps 766 mmHg 80%
    23:00 +18°C° 0 mm 2 mps 766 mmHg 81%
    Show more